, FL

(GMT )
Crestview

Weather History for KEGI - July, 2012

Change the Weather History Date:

Tuesday, July 31, 2012

  Actual Average Record
Temperature  
Mean Temperature 76 °F -  
Max Temperature 81 °F - - ()
Min Temperature 73 °F - - ()
Cooling Degree Days 12    
Growing Degree Days 26 (Base 50)    
Moisture  
Dew Point 74 °F    
Average Humidity 92    
Maximum Humidity 100    
Minimum Humidity 79    
Precipitation  
Precipitation 0.24 in - - ()
Sea Level Pressure  
Sea Level Pressure 29.99 in    
Wind  
Wind Speed 5 mph (SSW)    
Max Wind Speed 13 mph    
Max Gust Speed -    
Visibility 9 miles    
Events Rain , Thunderstorm    
Averages and records for this station are not official NWS values.
T = Trace of Precipitation, MM = Missing Value Source: NWS Daily Summary

Daily Weather History Graph

Daily Weather History Graph

Search for Another Location

Airport or City:

Trip Planner

Search our weather history database for the weather conditions in past years. The results will help you decide how hot, cold, wet, or windy it might be!

Date:

Astronomy

Jul. 31, 2012 Rise Set
Actual Time 6:03 AM CDT 7:40 PM CDT
Civil Twilight 5:37 AM CDT 8:06 PM CDT
Nautical Twilight 5:05 AM CDT 8:38 PM CDT
Astronomical Twilight 4:32 AM CDT 9:11 PM CDT
Moon 6:29 PM CDT (7/31) 4:25 AM CDT (7/31)
Length of Visible Light 14h 29m
Length of Day
13h 37m
Waxing Gibbous, 97% of the Moon is Illuminated
Jul 31
Waxing Gibbous
Aug 1
Full
Aug 9
Last Quarter
Aug 17
New
Aug 24
First Quarter

Hourly Weather History & Observations

Time (CDT) Temp. Heat Index Dew Point Humidity Pressure Visibility Wind Dir Wind Speed Gust Speed Precip Events Conditions
12:55 AM 74.7 °F - 72.1 °F 92% 29.97 in 10.0 mi WNW 4.6 mph - N/A   Scattered Clouds
1:55 AM 74.5 °F - 71.1 °F 89% 29.94 in 10.0 mi SSW 3.5 mph - N/A   Partly Cloudy
2:55 AM 73.6 °F - 71.4 °F 93% 29.94 in 10.0 mi SSE 4.6 mph - N/A   Clear
3:14 AM 73.4 °F - 71.6 °F 94% 29.94 in 10.0 mi Calm Calm - N/A   Mostly Cloudy
3:23 AM 73.4 °F - 71.6 °F 94% 29.94 in 10.0 mi Calm Calm - N/A   Mostly Cloudy
3:47 AM 73.4 °F - 71.6 °F 94% 29.96 in 10.0 mi Calm Calm - N/A   Scattered Clouds
3:55 AM 73.8 °F - 71.8 °F 93% 29.97 in 10.0 mi Calm Calm - N/A   Scattered Clouds
4:55 AM 73.9 °F - 72.1 °F 94% 29.97 in 10.0 mi Calm Calm - N/A   Partly Cloudy
5:55 AM 75.2 °F - 73.2 °F 94% 29.97 in 10.0 mi South 4.6 mph - N/A   Scattered Clouds
6:55 AM 77.4 °F - 75.4 °F 94% 29.99 in 10.0 mi Calm Calm - N/A   Scattered Clouds
7:54 AM 80.6 °F 88.1 °F 78.8 °F 94% 29.98 in 9.0 mi West 5.8 mph - N/A Rain , Thunderstorm Light Rain
7:55 AM 80.4 °F 87.5 °F 78.6 °F 94% 29.97 in 10.0 mi West 5.8 mph - N/A Thunderstorm Scattered Clouds
8:03 AM 78.8 °F - 77.0 °F 94% 29.98 in 6.0 mi North 10.4 mph - N/A Rain , Thunderstorm Light Thunderstorms and Rain
8:07 AM 78.8 °F - 77.0 °F 94% 29.98 in 7.0 mi NNW 10.4 mph - N/A Rain , Thunderstorm Light Thunderstorms and Rain
8:09 AM 78.8 °F - 77.0 °F 94% 29.98 in 8.0 mi NNW 10.4 mph - N/A Thunderstorm Thunderstorm
8:12 AM 77.0 °F - 77.0 °F 100% 29.97 in 7.0 mi NNW 8.1 mph - N/A Rain , Thunderstorm Light Thunderstorms and Rain
8:25 AM 77.0 °F - 75.2 °F 94% 30.01 in 4.0 mi ENE 3.5 mph - N/A Rain , Thunderstorm Light Thunderstorms and Rain
8:55 AM 77.2 °F - 75.4 °F 94% 30.03 in 8.0 mi NE 3.5 mph - 0.03 in Rain , Thunderstorm Light Thunderstorms and Rain
9:07 AM 77.0 °F - 75.2 °F 94% 30.02 in 10.0 mi East 3.5 mph - N/A Rain , Thunderstorm Light Thunderstorms and Rain
9:17 AM 77.0 °F - 75.2 °F 94% 30.02 in 2.0 mi SE 4.6 mph - N/A Rain , Thunderstorm Light Thunderstorms and Rain
9:31 AM 75.2 °F - 75.2 °F 100% 30.00 in 5.0 mi ESE 1.2 mph - N/A Rain , Thunderstorm Light Thunderstorms and Rain
9:55 AM 76.5 °F - 74.8 °F 95% 30.04 in 10.0 mi NW 2.3 mph - 0.10 in Rain , Thunderstorm Light Thunderstorms and Rain
10:55 AM 75.4 °F - 74.3 °F 96% 30.07 in 7.0 mi NNE 4.6 mph - 0.02 in Rain , Thunderstorm Light Thunderstorms and Rain
11:14 AM 75.2 °F - 75.2 °F 100% 30.04 in 6.0 mi NNE 3.5 mph - N/A Rain Light Rain
11:55 AM 76.3 °F - 73.0 °F 90% 30.09 in 10.0 mi NNW 8.1 mph - 0.04 in Rain Light Rain
12:20 PM 77.0 °F - 73.4 °F 89% 30.08 in 10.0 mi North 4.6 mph - N/A Rain , Thunderstorm Light Rain
12:41 PM 77.0 °F - 73.4 °F 89% 30.08 in 10.0 mi East 4.6 mph - N/A   Overcast
12:55 PM 77.0 °F - 72.9 °F 87% 30.10 in 10.0 mi SSE 3.5 mph - 0.01 in   Overcast
1:04 PM 77.0 °F - 73.4 °F 89% 30.08 in 10.0 mi South 8.1 mph - N/A Rain Light Rain
1:55 PM 74.7 °F - 72.5 °F 93% 30.06 in 10.0 mi SSW 10.4 mph - 0.03 in Rain Light Rain
2:36 PM 75.2 °F - 73.4 °F 94% 30.03 in 10.0 mi South 6.9 mph - N/A   Overcast
2:55 PM 75.9 °F - 73.4 °F 92% 30.03 in 10.0 mi South 11.5 mph - 0.01 in   Overcast
3:33 PM 77.0 °F - 73.4 °F 89% 29.98 in 10.0 mi South 10.4 mph - N/A   Overcast
3:55 PM 76.8 °F - 73.6 °F 90% 29.98 in 10.0 mi South 9.2 mph - N/A   Overcast
4:16 PM 77.0 °F - 73.4 °F 89% 29.95 in 10.0 mi South 12.7 mph - N/A   Overcast
4:55 PM 79.2 °F - 73.4 °F 82% 29.95 in 10.0 mi SSW 12.7 mph - N/A   Mostly Cloudy
5:09 PM 80.6 °F 85.4 °F 73.4 °F 79% 29.95 in 10.0 mi SW 10.4 mph - N/A   Mostly Cloudy
5:42 PM 80.6 °F 85.4 °F 73.4 °F 79% 29.93 in 10.0 mi SSW 12.7 mph - N/A   Mostly Cloudy
5:58 PM 80.6 °F 85.5 °F 73.8 °F 80% 29.94 in 10.0 mi SW 11.5 mph - N/A   Mostly Cloudy
6:55 PM 79.9 °F - 73.2 °F 80% 29.94 in 10.0 mi WSW 9.2 mph - N/A   Mostly Cloudy
7:54 PM 78.3 °F - 73.2 °F 84% 29.94 in 10.0 mi Calm Calm - N/A   Mostly Cloudy
8:59 PM 75.0 °F - 73.8 °F 96% 29.96 in 10.0 mi NNE 2.3 mph - N/A   Mostly Cloudy
9:56 PM 74.8 °F - 73.9 °F 97% 29.96 in 9.0 mi Calm Calm - N/A   Mostly Cloudy
10:58 PM 74.1 °F - 73.2 °F 97% 29.98 in 6.0 mi Calm Calm - N/A   Mostly Cloudy
11:55 PM 75.0 °F - 73.8 °F 96% 29.99 in 6.0 mi Calm Calm - N/A   Mostly Cloudy